Year,Month,Day,Hour,Minute,Value (Times are PST for temperature in C)
2017,10,28,00,00,11.80
2017,10,28,00,01,11.80
2017,10,28,00,02,11.90
2017,10,28,00,03,11.90
2017,10,28,00,04,11.90
2017,10,28,00,05,11.90
2017,10,28,00,06,11.90
2017,10,28,00,07,11.90
2017,10,28,00,08,11.90
2017,10,28,00,09,11.90
2017,10,28,00,10,11.90
2017,10,28,00,11,11.90
2017,10,28,00,12,11.90
2017,10,28,00,13,11.90
2017,10,28,00,14,11.90
2017,10,28,00,15,11.80
2017,10,28,00,16,11.80
2017,10,28,00,17,11.80
2017,10,28,00,18,11.80
2017,10,28,00,19,11.80
2017,10,28,00,20,11.80
2017,10,28,00,21,11.80
2017,10,28,00,22,11.80
2017,10,28,00,23,11.80
2017,10,28,00,24,11.80
2017,10,28,00,25,11.80
2017,10,28,00,26,11.90
2017,10,28,00,27,11.90
2017,10,28,00,28,11.90
2017,10,28,00,29,11.90
2017,10,28,00,30,11.90
2017,10,28,00,31,11.90
2017,10,28,00,32,11.90
2017,10,28,00,33,11.80
2017,10,28,00,34,11.80
2017,10,28,00,35,11.80
2017,10,28,00,36,11.70
2017,10,28,00,37,11.60
2017,10,28,00,38,11.50
2017,10,28,00,39,11.40
2017,10,28,00,40,11.30
2017,10,28,00,41,11.20
2017,10,28,00,42,11.10
2017,10,28,00,43,11.00
2017,10,28,00,44,10.90
2017,10,28,00,45,10.80
2017,10,28,00,46,10.70
2017,10,28,00,47,10.60
2017,10,28,00,48,10.60
2017,10,28,00,49,10.50
2017,10,28,00,50,10.40
2017,10,28,00,51,10.40
2017,10,28,00,52,10.40
2017,10,28,00,53,10.30
2017,10,28,00,54,10.30
2017,10,28,00,55,10.30
2017,10,28,00,56,10.20
2017,10,28,00,57,10.20
2017,10,28,00,58,10.20
2017,10,28,00,59,10.20
2017,10,28,01,00,10.20
2017,10,28,01,01,10.20
2017,10,28,01,02,10.20
2017,10,28,01,03,10.10
2017,10,28,01,04,10.10
2017,10,28,01,05,10.10
2017,10,28,01,06,10.10
2017,10,28,01,07,10.10
2017,10,28,01,08,10.10
2017,10,28,01,09,10.10
2017,10,28,01,10,10.10
2017,10,28,01,11,10.10
2017,10,28,01,12,10.10
2017,10,28,01,13,10.00
2017,10,28,01,14,9.90
2017,10,28,01,15,9.90
2017,10,28,01,16,9.90
2017,10,28,01,17,9.90
2017,10,28,01,18,10.00
2017,10,28,01,19,10.10
2017,10,28,01,20,10.20
2017,10,28,01,21,10.30
2017,10,28,01,22,10.40
2017,10,28,01,23,10.40
2017,10,28,01,24,10.50
2017,10,28,01,25,10.60
2017,10,28,01,26,10.70
2017,10,28,01,27,10.80
2017,10,28,01,28,10.90
2017,10,28,01,29,10.90
2017,10,28,01,30,11.00
2017,10,28,01,31,11.10
2017,10,28,01,32,11.20
2017,10,28,01,33,11.20
2017,10,28,01,34,11.30
2017,10,28,01,35,11.30
2017,10,28,01,36,11.30
2017,10,28,01,37,11.30
2017,10,28,01,38,11.30
2017,10,28,01,39,11.30
2017,10,28,01,40,11.30
2017,10,28,01,41,11.30
2017,10,28,01,42,11.30
2017,10,28,01,43,11.30
2017,10,28,01,44,11.30
2017,10,28,01,45,11.30
2017,10,28,01,46,11.20
2017,10,28,01,47,11.20
2017,10,28,01,48,11.20
2017,10,28,01,49,11.20
2017,10,28,01,50,11.20
2017,10,28,01,51,11.20
2017,10,28,01,52,11.20
2017,10,28,01,53,11.20
2017,10,28,01,54,11.20
2017,10,28,01,55,11.20
2017,10,28,01,56,11.20
2017,10,28,01,57,11.20
2017,10,28,01,58,11.20
2017,10,28,01,59,11.30
2017,10,28,02,00,11.30
2017,10,28,02,01,11.30
2017,10,28,02,02,11.30
2017,10,28,02,03,11.30
2017,10,28,02,04,11.30
2017,10,28,02,05,11.30
2017,10,28,02,06,11.30
2017,10,28,02,07,11.30
2017,10,28,02,08,11.30
2017,10,28,02,09,11.20
2017,10,28,02,10,11.20
2017,10,28,02,11,11.20
2017,10,28,02,12,11.20
2017,10,28,02,13,11.20
2017,10,28,02,14,11.10
2017,10,28,02,15,11.10
2017,10,28,02,16,11.10
2017,10,28,02,17,11.10
2017,10,28,02,18,11.10
2017,10,28,02,19,11.10
2017,10,28,02,20,11.10
2017,10,28,02,21,11.10
2017,10,28,02,22,11.10
2017,10,28,02,23,11.20
2017,10,28,02,24,11.20
2017,10,28,02,25,11.20
2017,10,28,02,26,11.20
2017,10,28,02,27,11.20
2017,10,28,02,28,11.20
2017,10,28,02,29,11.20
2017,10,28,02,30,11.20
2017,10,28,02,31,11.20
2017,10,28,02,32,11.20
2017,10,28,02,33,11.20
2017,10,28,02,34,11.20
2017,10,28,02,35,11.20
2017,10,28,02,36,11.20
2017,10,28,02,37,11.20
2017,10,28,02,38,11.20
2017,10,28,02,39,11.20
2017,10,28,02,40,11.30
2017,10,28,02,41,11.30
2017,10,28,02,42,11.30
2017,10,28,02,43,11.40
2017,10,28,02,44,11.40
2017,10,28,02,45,11.40
2017,10,28,02,46,11.50
2017,10,28,02,47,11.60
2017,10,28,02,48,11.60
2017,10,28,02,49,11.60
2017,10,28,02,50,11.60
2017,10,28,02,51,11.60
2017,10,28,02,52,11.60
2017,10,28,02,53,11.60
2017,10,28,02,54,11.60
2017,10,28,02,55,11.60
2017,10,28,02,56,11.60
2017,10,28,02,57,11.60
2017,10,28,02,58,11.60
2017,10,28,02,59,11.60
2017,10,28,03,00,11.60
2017,10,28,03,01,11.60
2017,10,28,03,02,11.60
2017,10,28,03,03,11.60
2017,10,28,03,04,11.60
2017,10,28,03,05,11.40
2017,10,28,03,06,11.40
2017,10,28,03,07,11.40
2017,10,28,03,08,11.40
2017,10,28,03,09,11.40
2017,10,28,03,10,11.30
2017,10,28,03,11,11.30
2017,10,28,03,12,11.20
2017,10,28,03,13,11.20
2017,10,28,03,14,11.20
2017,10,28,03,15,11.10
2017,10,28,03,16,11.10
2017,10,28,03,17,11.10
2017,10,28,03,18,11.10
2017,10,28,03,19,11.10
2017,10,28,03,20,11.10
2017,10,28,03,21,11.10
2017,10,28,03,22,11.10
2017,10,28,03,23,11.10
2017,10,28,03,24,11.00
2017,10,28,03,25,10.90
2017,10,28,03,26,10.90
2017,10,28,03,27,10.90
2017,10,28,03,28,10.90
2017,10,28,03,29,10.80
2017,10,28,03,30,10.80
2017,10,28,03,31,10.80
2017,10,28,03,32,10.80
2017,10,28,03,33,10.70
2017,10,28,03,34,10.70
2017,10,28,03,35,10.70
2017,10,28,03,36,10.70
2017,10,28,03,37,10.70
2017,10,28,03,38,10.60
2017,10,28,03,39,10.60
2017,10,28,03,40,10.60
2017,10,28,03,41,10.60
2017,10,28,03,42,10.60
2017,10,28,03,43,10.60
2017,10,28,03,44,10.60
2017,10,28,03,45,10.60
2017,10,28,03,46,10.70
2017,10,28,03,47,10.70
2017,10,28,03,48,10.70
2017,10,28,03,49,10.60
2017,10,28,03,50,10.60
2017,10,28,03,51,10.70
2017,10,28,03,52,10.70
2017,10,28,03,53,10.70
2017,10,28,03,54,10.60
2017,10,28,03,55,10.70
2017,10,28,03,56,10.70
2017,10,28,03,57,10.70
2017,10,28,03,58,10.60
2017,10,28,03,59,10.60
2017,10,28,04,00,10.60
2017,10,28,04,01,10.60
2017,10,28,04,02,10.60
2017,10,28,04,03,10.60
2017,10,28,04,04,10.60
2017,10,28,04,05,10.60
2017,10,28,04,06,10.60
2017,10,28,04,07,10.50
2017,10,28,04,08,10.40
2017,10,28,04,09,10.40
2017,10,28,04,10,10.40
2017,10,28,04,11,10.40
2017,10,28,04,12,10.40
2017,10,28,04,13,10.40
2017,10,28,04,14,10.40
2017,10,28,04,15,10.40
2017,10,28,04,16,10.40
2017,10,28,04,17,10.40
2017,10,28,04,18,10.40
2017,10,28,04,19,10.40
2017,10,28,04,20,10.40
2017,10,28,04,21,10.40
2017,10,28,04,22,10.50
2017,10,28,04,23,10.60
2017,10,28,04,24,10.60
2017,10,28,04,25,10.60
2017,10,28,04,26,10.60
2017,10,28,04,27,10.60
2017,10,28,04,28,10.70
2017,10,28,04,29,10.70
2017,10,28,04,30,10.80
2017,10,28,04,31,10.80
2017,10,28,04,32,10.80
2017,10,28,04,33,10.80
2017,10,28,04,34,10.80
2017,10,28,04,35,10.80
2017,10,28,04,36,10.90
2017,10,28,04,37,10.80
2017,10,28,04,38,10.80
2017,10,28,04,39,10.90
2017,10,28,04,40,10.90
2017,10,28,04,41,10.90
2017,10,28,04,42,10.90
2017,10,28,04,43,10.90
2017,10,28,04,44,10.90
2017,10,28,04,45,10.90
2017,10,28,04,46,10.90
2017,10,28,04,47,10.90
2017,10,28,04,48,10.90
2017,10,28,04,49,10.90
2017,10,28,04,50,10.90
2017,10,28,04,51,10.90
2017,10,28,04,52,10.90
2017,10,28,04,53,10.90
2017,10,28,04,54,10.90
2017,10,28,04,55,10.90
2017,10,28,04,56,10.90
2017,10,28,04,57,10.90
2017,10,28,04,58,10.90
2017,10,28,04,59,10.90
2017,10,28,05,00,10.90
2017,10,28,05,01,10.90
2017,10,28,05,02,10.90
2017,10,28,05,03,10.90
2017,10,28,05,04,10.90
2017,10,28,05,05,10.90
2017,10,28,05,06,10.90
2017,10,28,05,07,10.90
2017,10,28,05,08,10.90
2017,10,28,05,09,10.90
2017,10,28,05,10,10.90
2017,10,28,05,11,10.90
2017,10,28,05,12,10.90
2017,10,28,05,13,10.90
2017,10,28,05,14,10.90
2017,10,28,05,15,10.90
2017,10,28,05,16,10.90
2017,10,28,05,17,10.90
2017,10,28,05,18,10.90
2017,10,28,05,19,10.90
2017,10,28,05,20,10.90
2017,10,28,05,21,10.90
2017,10,28,05,22,10.90
2017,10,28,05,23,10.90
2017,10,28,05,24,10.90
2017,10,28,05,25,10.90
2017,10,28,05,26,10.90
2017,10,28,05,27,10.90
2017,10,28,05,28,10.90
2017,10,28,05,29,10.90
2017,10,28,05,30,10.90
2017,10,28,05,31,11.10
2017,10,28,05,32,11.10
2017,10,28,05,33,11.00
2017,10,28,05,34,10.90
2017,10,28,05,35,11.00
2017,10,28,05,36,11.10
2017,10,28,05,37,11.10
2017,10,28,05,38,11.10
2017,10,28,05,39,11.10
2017,10,28,05,40,11.10
2017,10,28,05,41,11.10
2017,10,28,05,42,11.10
2017,10,28,05,43,11.10
2017,10,28,05,44,11.10
2017,10,28,05,45,11.10
2017,10,28,05,46,11.10
2017,10,28,05,47,11.10
2017,10,28,05,48,11.10
2017,10,28,05,49,11.10
2017,10,28,05,50,11.10
2017,10,28,05,51,11.10
2017,10,28,05,52,11.10
2017,10,28,05,53,11.10
2017,10,28,05,54,11.10
2017,10,28,05,55,11.10
2017,10,28,05,56,11.10
2017,10,28,05,57,11.10
2017,10,28,05,58,11.10
2017,10,28,05,59,11.10
2017,10,28,06,00,11.10
2017,10,28,06,01,11.10
2017,10,28,06,02,11.10
2017,10,28,06,03,11.10
2017,10,28,06,04,11.10
2017,10,28,06,05,11.10
2017,10,28,06,06,11.10
2017,10,28,06,07,11.10
2017,10,28,06,08,11.10
2017,10,28,06,09,11.10
2017,10,28,06,10,11.10
2017,10,28,06,11,11.10
2017,10,28,06,12,11.00
2017,10,28,06,13,10.90
2017,10,28,06,14,10.90
2017,10,28,06,15,10.90
2017,10,28,06,16,10.90
2017,10,28,06,17,10.90
2017,10,28,06,18,10.90
2017,10,28,06,19,10.90
2017,10,28,06,20,10.90
2017,10,28,06,21,10.80
2017,10,28,06,22,10.80
2017,10,28,06,23,10.80
2017,10,28,06,24,10.80
2017,10,28,06,25,10.80
2017,10,28,06,26,10.80
2017,10,28,06,27,10.80
2017,10,28,06,28,10.80
2017,10,28,06,29,10.80
2017,10,28,06,30,10.80
2017,10,28,06,31,10.80
2017,10,28,06,32,10.80
2017,10,28,06,33,10.80
2017,10,28,06,34,10.80
2017,10,28,06,35,10.80
2017,10,28,06,36,10.80
2017,10,28,06,37,10.70
2017,10,28,06,38,10.70
2017,10,28,06,39,10.70
2017,10,28,06,40,10.70
2017,10,28,06,41,10.70
2017,10,28,06,42,10.70
2017,10,28,06,43,10.60
2017,10,28,06,44,10.60
2017,10,28,06,45,10.60
2017,10,28,06,46,10.60
2017,10,28,06,47,10.60
2017,10,28,06,48,10.60
2017,10,28,06,49,10.60
2017,10,28,06,50,10.60
2017,10,28,06,51,10.60
2017,10,28,06,52,10.60
2017,10,28,06,53,10.60
2017,10,28,06,54,10.60
2017,10,28,06,55,10.60
2017,10,28,06,56,10.60
2017,10,28,06,57,10.60
2017,10,28,06,58,10.60
2017,10,28,06,59,10.60
2017,10,28,07,00,10.60
2017,10,28,07,01,10.60
2017,10,28,07,02,10.60
2017,10,28,07,03,10.60
2017,10,28,07,04,10.60
2017,10,28,07,05,10.60
2017,10,28,07,06,10.60
2017,10,28,07,07,10.60
2017,10,28,07,08,10.60
2017,10,28,07,09,10.60
2017,10,28,07,10,10.60
2017,10,28,07,11,10.70
2017,10,28,07,12,10.70
2017,10,28,07,13,10.70
2017,10,28,07,14,10.70
2017,10,28,07,15,10.70
2017,10,28,07,16,10.70
2017,10,28,07,17,10.70
2017,10,28,07,18,10.60
2017,10,28,07,19,10.60
2017,10,28,07,20,10.60
2017,10,28,07,21,10.60
2017,10,28,07,22,10.60
2017,10,28,07,23,10.60
2017,10,28,07,24,10.50
2017,10,28,07,25,10.40
2017,10,28,07,26,10.40
2017,10,28,07,27,10.40
2017,10,28,07,28,10.30
2017,10,28,07,29,10.30
2017,10,28,07,30,10.30
2017,10,28,07,31,10.20
2017,10,28,07,32,10.20
2017,10,28,07,33,10.20
2017,10,28,07,34,10.20
2017,10,28,07,35,10.20
2017,10,28,07,36,10.10
2017,10,28,07,37,10.10
2017,10,28,07,38,10.10
2017,10,28,07,39,10.10
2017,10,28,07,40,10.10
2017,10,28,07,41,10.10
2017,10,28,07,42,10.10
2017,10,28,07,43,10.00
2017,10,28,07,44,9.90
2017,10,28,07,45,9.90
2017,10,28,07,46,9.90
2017,10,28,07,47,9.90
2017,10,28,07,48,9.90
2017,10,28,07,49,9.90
2017,10,28,07,50,9.80
2017,10,28,07,51,9.80
2017,10,28,07,52,9.80
2017,10,28,07,53,9.90
2017,10,28,07,54,9.90
2017,10,28,07,55,9.90
2017,10,28,07,56,10.00
2017,10,28,07,57,10.10
2017,10,28,07,58,10.10
2017,10,28,07,59,10.20
2017,10,28,08,00,10.20
2017,10,28,08,01,10.30
2017,10,28,08,02,10.30
2017,10,28,08,03,10.40
2017,10,28,08,04,10.40
2017,10,28,08,05,10.40
2017,10,28,08,06,10.40
2017,10,28,08,07,10.40
2017,10,28,08,08,10.40
2017,10,28,08,09,10.40
2017,10,28,08,10,10.40
2017,10,28,08,11,10.40
2017,10,28,08,12,10.40
2017,10,28,08,13,10.40
2017,10,28,08,14,10.40
2017,10,28,08,15,10.40
2017,10,28,08,16,10.40
2017,10,28,08,17,10.40
2017,10,28,08,18,10.40
2017,10,28,08,19,10.40
2017,10,28,08,20,10.40
2017,10,28,08,21,10.40
2017,10,28,08,22,10.40
2017,10,28,08,23,10.40
2017,10,28,08,24,10.40
2017,10,28,08,25,10.40
2017,10,28,08,26,10.40
2017,10,28,08,27,10.40
2017,10,28,08,28,10.30
2017,10,28,08,29,10.30
2017,10,28,08,30,10.40
2017,10,28,08,31,10.40
2017,10,28,08,32,10.40
2017,10,28,08,33,10.40
2017,10,28,08,34,10.40
2017,10,28,08,35,10.40
2017,10,28,08,36,10.40
2017,10,28,08,37,10.40
2017,10,28,08,38,10.40
2017,10,28,08,39,10.40
2017,10,28,08,40,10.40
2017,10,28,08,41,10.40
2017,10,28,08,42,10.30
2017,10,28,08,43,10.30
2017,10,28,08,44,10.30
2017,10,28,08,45,10.30
2017,10,28,08,46,10.30
2017,10,28,08,47,10.30
2017,10,28,08,48,10.30
2017,10,28,08,49,10.30
2017,10,28,08,50,10.30
2017,10,28,08,51,10.30
2017,10,28,08,52,10.30
2017,10,28,08,53,10.40
2017,10,28,08,54,10.40
2017,10,28,08,55,10.40
2017,10,28,08,56,10.40
2017,10,28,08,57,10.40
2017,10,28,08,58,10.40
2017,10,28,08,59,10.40
2017,10,28,09,00,10.40
2017,10,28,09,01,10.40
2017,10,28,09,02,10.40
2017,10,28,09,03,10.40
2017,10,28,09,04,10.40
2017,10,28,09,05,10.40
2017,10,28,09,06,10.40
2017,10,28,09,07,10.40
2017,10,28,09,08,10.40
2017,10,28,09,09,10.40
2017,10,28,09,10,10.40
2017,10,28,09,11,10.40
2017,10,28,09,12,10.40
2017,10,28,09,13,10.40
2017,10,28,09,14,10.40
2017,10,28,09,15,10.40
2017,10,28,09,16,10.40
2017,10,28,09,17,10.40
2017,10,28,09,18,10.40
2017,10,28,09,19,10.40
2017,10,28,09,20,10.40
2017,10,28,09,21,10.40
2017,10,28,09,22,10.40
2017,10,28,09,23,10.40
2017,10,28,09,24,10.40
2017,10,28,09,25,10.40
2017,10,28,09,26,10.40
2017,10,28,09,27,10.40
2017,10,28,09,28,10.40
2017,10,28,09,29,10.40
2017,10,28,09,30,10.40
2017,10,28,09,31,10.40
2017,10,28,09,32,10.40
2017,10,28,09,33,10.40
2017,10,28,09,34,10.50
2017,10,28,09,35,10.60
2017,10,28,09,36,10.60
2017,10,28,09,37,10.60
2017,10,28,09,38,10.60
2017,10,28,09,39,10.60
2017,10,28,09,40,10.60
2017,10,28,09,41,10.60
2017,10,28,09,42,10.60
2017,10,28,09,43,10.60
2017,10,28,09,44,10.60
2017,10,28,09,45,10.60
2017,10,28,09,46,10.60
2017,10,28,09,47,10.60
2017,10,28,09,48,10.60
2017,10,28,09,49,10.60
2017,10,28,09,50,10.60
2017,10,28,09,51,10.60
2017,10,28,09,52,10.60
2017,10,28,09,53,10.60
2017,10,28,09,54,10.60
2017,10,28,09,55,10.60
2017,10,28,09,56,10.70
2017,10,28,09,57,10.70
2017,10,28,09,58,10.80
2017,10,28,09,59,10.80
2017,10,28,10,00,10.80
2017,10,28,10,01,10.90
2017,10,28,10,02,10.90
2017,10,28,10,03,11.00
2017,10,28,10,04,11.10
2017,10,28,10,05,11.10
2017,10,28,10,06,11.10
2017,10,28,10,07,11.20
2017,10,28,10,08,11.30
2017,10,28,10,09,11.30
2017,10,28,10,10,11.40
2017,10,28,10,11,11.50
2017,10,28,10,12,11.60
2017,10,28,10,13,11.60
2017,10,28,10,14,11.70
2017,10,28,10,15,11.80
2017,10,28,10,16,11.80
2017,10,28,10,17,11.90
2017,10,28,10,18,12.00
2017,10,28,10,19,12.10
2017,10,28,10,20,12.30
2017,10,28,10,21,12.40
2017,10,28,10,22,12.50
2017,10,28,10,23,12.60
2017,10,28,10,24,12.70
2017,10,28,10,25,12.80
2017,10,28,10,26,13.00
2017,10,28,10,27,13.10
2017,10,28,10,28,13.20
2017,10,28,10,29,13.30
2017,10,28,10,30,13.30
2017,10,28,10,31,13.40
2017,10,28,10,32,13.40
2017,10,28,10,33,13.40
2017,10,28,10,34,13.40
2017,10,28,10,35,13.30
2017,10,28,10,36,13.30
2017,10,28,10,37,13.30
2017,10,28,10,38,13.30
2017,10,28,10,39,13.30
2017,10,28,10,40,13.30
2017,10,28,10,41,13.20
2017,10,28,10,42,13.20
2017,10,28,10,43,13.20
2017,10,28,10,44,13.10
2017,10,28,10,45,13.10
2017,10,28,10,46,13.10
2017,10,28,10,47,13.10
2017,10,28,10,48,13.10
2017,10,28,10,49,13.10
2017,10,28,10,50,13.10
2017,10,28,10,51,13.10
2017,10,28,10,52,13.00
2017,10,28,10,53,13.00
2017,10,28,10,54,13.00
2017,10,28,10,55,13.00
2017,10,28,10,56,13.00
2017,10,28,10,57,13.00
2017,10,28,10,58,13.10
2017,10,28,10,59,13.10
2017,10,28,11,00,13.20
2017,10,28,11,01,13.30
2017,10,28,11,02,13.30
2017,10,28,11,03,13.40
2017,10,28,11,04,13.50
2017,10,28,11,05,13.60
2017,10,28,11,06,13.70
2017,10,28,11,07,13.70
2017,10,28,11,08,13.80
2017,10,28,11,09,14.00
2017,10,28,11,10,14.10
2017,10,28,11,11,14.20
2017,10,28,11,12,14.30
2017,10,28,11,13,14.40
2017,10,28,11,14,14.50
2017,10,28,11,15,14.60
2017,10,28,11,16,14.70
2017,10,28,11,17,14.80
2017,10,28,11,18,14.90
2017,10,28,11,19,14.90
2017,10,28,11,20,15.00
2017,10,28,11,21,15.10
2017,10,28,11,22,15.10
2017,10,28,11,23,15.20
2017,10,28,11,24,15.20
2017,10,28,11,25,15.30
2017,10,28,11,26,15.40
2017,10,28,11,27,15.50
2017,10,28,11,28,15.50
2017,10,28,11,29,15.60
2017,10,28,11,30,15.60
2017,10,28,11,31,15.70
2017,10,28,11,32,15.70
2017,10,28,11,33,15.80
2017,10,28,11,34,15.80
2017,10,28,11,35,15.80
2017,10,28,11,36,15.80
2017,10,28,11,37,15.80
2017,10,28,11,38,15.80
2017,10,28,11,39,15.80
2017,10,28,11,40,15.80
2017,10,28,11,41,15.80
2017,10,28,11,42,15.80
2017,10,28,11,43,15.80
2017,10,28,11,44,15.80
2017,10,28,11,45,15.80
2017,10,28,11,46,15.80
2017,10,28,11,47,15.80
2017,10,28,11,48,15.80
2017,10,28,11,49,15.80
2017,10,28,11,50,15.80
2017,10,28,11,51,15.80
2017,10,28,11,52,15.80
2017,10,28,11,53,15.80
2017,10,28,11,54,15.80
2017,10,28,11,55,15.80
2017,10,28,11,56,15.80
2017,10,28,11,57,15.80
2017,10,28,11,58,15.80
2017,10,28,11,59,15.80
2017,10,28,12,00,15.90
2017,10,28,12,01,16.00
2017,10,28,12,02,16.00
2017,10,28,12,03,15.90
2017,10,28,12,04,15.90
2017,10,28,12,05,15.90
2017,10,28,12,06,15.90
2017,10,28,12,07,16.00
2017,10,28,12,08,16.10
2017,10,28,12,09,16.10
2017,10,28,12,10,16.10
2017,10,28,12,11,16.10
2017,10,28,12,12,16.20
2017,10,28,12,13,16.20
2017,10,28,12,14,16.20
2017,10,28,12,15,16.20
2017,10,28,12,16,16.20
2017,10,28,12,17,16.30
2017,10,28,12,18,16.30
2017,10,28,12,19,16.30
2017,10,28,12,20,16.30
2017,10,28,12,21,16.30
2017,10,28,12,22,16.30
2017,10,28,12,23,16.30
2017,10,28,12,24,16.20
2017,10,28,12,25,16.20
2017,10,28,12,26,16.30
2017,10,28,12,27,16.40
2017,10,28,12,28,16.40
2017,10,28,12,29,16.40
2017,10,28,12,30,16.50
2017,10,28,12,31,16.60
2017,10,28,12,32,16.60
2017,10,28,12,33,16.70
2017,10,28,12,34,16.70
2017,10,28,12,35,16.70
2017,10,28,12,36,16.70
2017,10,28,12,37,16.70
2017,10,28,12,38,16.80
2017,10,28,12,39,16.80
2017,10,28,12,40,16.80
2017,10,28,12,41,16.80
2017,10,28,12,42,16.90
2017,10,28,12,43,16.90
2017,10,28,12,44,16.90
2017,10,28,12,45,17.00
2017,10,28,12,46,17.00
2017,10,28,12,47,17.10
2017,10,28,12,48,17.20
2017,10,28,12,49,17.30
2017,10,28,12,50,17.40
2017,10,28,12,51,17.50
2017,10,28,12,52,17.50
2017,10,28,12,53,17.70
2017,10,28,12,54,17.80
2017,10,28,12,55,17.80
2017,10,28,12,56,17.90
2017,10,28,12,57,17.80
2017,10,28,12,58,17.90
2017,10,28,12,59,17.90
2017,10,28,13,00,17.90
2017,10,28,13,01,17.90
2017,10,28,13,02,18.00
2017,10,28,13,03,18.10
2017,10,28,13,04,18.20
2017,10,28,13,05,18.20
2017,10,28,13,06,18.20
2017,10,28,13,07,18.20
2017,10,28,13,08,18.20
2017,10,28,13,09,18.20
2017,10,28,13,10,18.20
2017,10,28,13,11,18.20
2017,10,28,13,12,18.20
2017,10,28,13,13,18.20
2017,10,28,13,14,18.20
2017,10,28,13,15,18.20
2017,10,28,13,16,18.20
2017,10,28,13,17,18.20
2017,10,28,13,18,18.20
2017,10,28,13,19,18.20
2017,10,28,13,20,18.20
2017,10,28,13,21,18.20
2017,10,28,13,22,18.20
2017,10,28,13,23,18.20
2017,10,28,13,24,18.20
2017,10,28,13,25,18.20
2017,10,28,13,26,18.20
2017,10,28,13,27,18.20
2017,10,28,13,28,18.20
2017,10,28,13,29,18.30
2017,10,28,13,30,18.30
2017,10,28,13,31,18.30
2017,10,28,13,32,18.30
2017,10,28,13,33,18.30
2017,10,28,13,34,18.30
2017,10,28,13,35,18.30
2017,10,28,13,36,18.40
2017,10,28,13,37,18.40
2017,10,28,13,38,18.40
2017,10,28,13,39,18.40
2017,10,28,13,40,18.40
2017,10,28,13,41,18.40
2017,10,28,13,42,18.40
2017,10,28,13,43,18.40
2017,10,28,13,44,18.40
2017,10,28,13,45,18.40
2017,10,28,13,46,18.40
2017,10,28,13,47,18.40
2017,10,28,13,48,18.40
2017,10,28,13,49,18.30
2017,10,28,13,50,18.40
2017,10,28,13,51,18.40
2017,10,28,13,52,18.40
2017,10,28,13,53,18.40
2017,10,28,13,54,18.40
2017,10,28,13,55,18.40
2017,10,28,13,56,18.40
2017,10,28,13,57,18.40
2017,10,28,13,58,18.40
2017,10,28,13,59,18.40
2017,10,28,14,00,18.50
2017,10,28,14,01,18.50
2017,10,28,14,02,18.50
2017,10,28,14,03,18.50
2017,10,28,14,04,18.50
2017,10,28,14,05,18.50
2017,10,28,14,06,18.50
2017,10,28,14,07,18.50
2017,10,28,14,08,18.50
2017,10,28,14,09,18.50
2017,10,28,14,10,18.50
2017,10,28,14,11,18.50
2017,10,28,14,12,18.40
2017,10,28,14,13,18.50
2017,10,28,14,14,18.50
2017,10,28,14,15,18.40
2017,10,28,14,16,18.40
2017,10,28,14,17,18.30
2017,10,28,14,18,18.20
2017,10,28,14,19,18.20
2017,10,28,14,20,18.20
2017,10,28,14,21,18.20
2017,10,28,14,22,18.10
2017,10,28,14,23,18.10
2017,10,28,14,24,18.00
2017,10,28,14,25,17.90
2017,10,28,14,26,17.90
2017,10,28,14,27,17.90
2017,10,28,14,28,17.90
2017,10,28,14,29,17.80
2017,10,28,14,30,17.80
2017,10,28,14,31,17.80
2017,10,28,14,32,17.70
2017,10,28,14,33,17.70
2017,10,28,14,34,17.60
2017,10,28,14,35,17.50
2017,10,28,14,36,17.40
2017,10,28,14,37,17.40
2017,10,28,14,38,17.40
2017,10,28,14,39,17.30
2017,10,28,14,40,17.30
2017,10,28,14,41,17.30
2017,10,28,14,42,17.20
2017,10,28,14,43,17.10
2017,10,28,14,44,17.00
2017,10,28,14,45,17.00
2017,10,28,14,46,16.90
2017,10,28,14,47,16.90
2017,10,28,14,48,16.90
2017,10,28,14,49,16.80
2017,10,28,14,50,16.80
2017,10,28,14,51,16.80
2017,10,28,14,52,16.70
2017,10,28,14,53,16.70
2017,10,28,14,54,16.70
2017,10,28,14,55,16.60
2017,10,28,14,56,16.50
2017,10,28,14,57,16.40
2017,10,28,14,58,16.40
2017,10,28,14,59,16.40
2017,10,28,15,00,16.30
2017,10,28,15,01,16.30
2017,10,28,15,02,16.30
2017,10,28,15,03,16.30
2017,10,28,15,04,16.20
2017,10,28,15,05,16.20
2017,10,28,15,06,16.20
2017,10,28,15,07,16.20
2017,10,28,15,08,16.20
2017,10,28,15,09,16.20
2017,10,28,15,10,16.20
2017,10,28,15,11,16.20
2017,10,28,15,12,16.10
2017,10,28,15,13,16.10
2017,10,28,15,14,16.10
2017,10,28,15,15,16.10
2017,10,28,15,16,16.10
2017,10,28,15,17,16.10
2017,10,28,15,18,16.10
2017,10,28,15,19,16.10
2017,10,28,15,20,16.10
2017,10,28,15,21,16.10
2017,10,28,15,22,16.10
2017,10,28,15,23,16.00
2017,10,28,15,24,15.90
2017,10,28,15,25,15.90
2017,10,28,15,26,15.80
2017,10,28,15,27,15.80
2017,10,28,15,28,15.80
2017,10,28,15,29,15.80
2017,10,28,15,30,15.80
2017,10,28,15,31,15.80
2017,10,28,15,32,15.80
2017,10,28,15,33,15.80
2017,10,28,15,34,15.70
2017,10,28,15,35,15.70
2017,10,28,15,36,15.70
2017,10,28,15,37,15.70
2017,10,28,15,38,15.70
2017,10,28,15,39,15.60
2017,10,28,15,40,15.60
2017,10,28,15,41,15.60
2017,10,28,15,42,15.60
2017,10,28,15,43,15.60
2017,10,28,15,44,15.60
2017,10,28,15,45,15.50
2017,10,28,15,46,15.50
2017,10,28,15,47,15.50
2017,10,28,15,48,15.40
2017,10,28,15,49,15.40
2017,10,28,15,50,15.40
2017,10,28,15,51,15.30
2017,10,28,15,52,15.30
2017,10,28,15,53,15.30
2017,10,28,15,54,15.30
2017,10,28,15,55,15.30
2017,10,28,15,56,15.30
2017,10,28,15,57,15.30
2017,10,28,15,58,15.30
2017,10,28,15,59,15.30
2017,10,28,16,00,15.30
2017,10,28,16,01,15.30
2017,10,28,16,02,15.30
2017,10,28,16,03,15.30
2017,10,28,16,04,15.30
2017,10,28,16,05,15.30
2017,10,28,16,06,15.20
2017,10,28,16,07,15.20
2017,10,28,16,08,15.20
2017,10,28,16,09,15.20
2017,10,28,16,10,15.20
2017,10,28,16,11,15.10
2017,10,28,16,12,15.10
2017,10,28,16,13,15.10
2017,10,28,16,14,15.10
2017,10,28,16,15,15.10
2017,10,28,16,16,15.10
2017,10,28,16,17,15.10
2017,10,28,16,18,15.10
2017,10,28,16,19,15.00
2017,10,28,16,20,15.00
2017,10,28,16,21,15.00
2017,10,28,16,22,15.00
2017,10,28,16,23,15.00
2017,10,28,16,24,15.00
2017,10,28,16,25,15.00
2017,10,28,16,26,15.00
2017,10,28,16,27,15.00
2017,10,28,16,28,15.00
2017,10,28,16,29,15.00
2017,10,28,16,30,15.00
2017,10,28,16,31,15.00
2017,10,28,16,32,14.90
2017,10,28,16,33,14.90
2017,10,28,16,34,14.90
2017,10,28,16,35,14.90
2017,10,28,16,36,14.80
2017,10,28,16,37,14.80
2017,10,28,16,38,14.80
2017,10,28,16,39,14.80
2017,10,28,16,40,14.80
2017,10,28,16,41,14.80
2017,10,28,16,42,14.80
2017,10,28,16,43,14.80
2017,10,28,16,44,14.80
2017,10,28,16,45,14.70
2017,10,28,16,46,14.70
2017,10,28,16,47,14.70
2017,10,28,16,48,14.70
2017,10,28,16,49,14.70
2017,10,28,16,50,14.60
2017,10,28,16,51,14.60
2017,10,28,16,52,14.60
2017,10,28,16,53,14.60
2017,10,28,16,54,14.60
2017,10,28,16,55,14.50
2017,10,28,16,56,14.50
2017,10,28,16,57,14.50
2017,10,28,16,58,14.50
2017,10,28,16,59,14.50
2017,10,28,17,00,14.50
2017,10,28,17,01,14.50
2017,10,28,17,02,14.40
2017,10,28,17,03,14.40
2017,10,28,17,04,14.40
2017,10,28,17,05,14.40
2017,10,28,17,06,14.30
2017,10,28,17,07,14.30
2017,10,28,17,08,14.20
2017,10,28,17,09,14.20
2017,10,28,17,10,14.20
2017,10,28,17,11,14.10
2017,10,28,17,12,14.10
2017,10,28,17,13,14.00
2017,10,28,17,14,14.00
2017,10,28,17,15,13.90
2017,10,28,17,16,13.90
2017,10,28,17,17,13.80
2017,10,28,17,18,13.80
2017,10,28,17,19,13.70
2017,10,28,17,20,13.70